Location: Pordenone
(45.9640°N, 12.6580°E)
Time: 18:33:12
(UTC+02:00)

ISS - Pass Details

Date: 23 May 2021
Orbit: 417 x 422 km, 51.6° (Epoch: 18 June)

Event Time Altitude Azimuth Distance (km) Brightness Sun altitude
Rises 22:09:39 0° 289° (WNW) 2,366 1.2 -12.2°
Reaches altitude 10° 22:11:55 10° 300° (WNW) 1,503 0.3 -12.5°
Maximum altitude 22:14:56 30° 4° (N) 783 -1.9 -12.8°
Drops below altitude 10° 22:17:59 10° 68° (ENE) 1,504 -1.1 -13.2°
Enters shadow 22:19:14 - 76° (ENE) 1,975 -0.6 -13.3°
